Weather in Chicago

United States     41°52′32″N   87°37′25″W
temp.,
°C
wind,
m/s
gust,
m/s
humid.,
%
clouds,
%
prec.,
mm/h
press.,
hPa
HPBL,
m
18 september, sat
sat1801:00+22n81080100 2.8 1020447
04:00+22nne8872100 0.1 1020616
07:00+21ne888013 0.1 1022647
10:00+20ene888548 0.0 1022514
13:00+20ne66771 0.0 1022505
16:00+21nne66650 0.0 1021396
19:00+21nne55656 0.0 1020303
22:00+21ene45685 0.0 1021334
19 september, sun
sun1901:00+22e44740 0.0 1020282
04:00+21se45780 0.0 1020255
07:00+21sse66790 0.0 1020251
10:00+21sse45800 0.0 1020202
13:00+22ese55814 0.0 101893
16:00+23e6781100 0.0 101672
19:00+24se558092 0.0 101550
22:00+24sse797928 0.0 101688
20 september, mon
mon2001:00+23sse71081100 0.0 1016164
04:00+22s7980100 0.0 1015218
07:00+22s81386100 0.0 1015548
10:00+21s8129096 0.4 1015684
13:00+21s91492100 2.2 1014807
16:00+22sse10139163 0.3 1013688
19:00+22s10148995 0.3 1013525
22:00+22s101590100 0.0 1012583
21 september, tue
tue2101:00+22s11188995 0.1 1012655
04:00+22ssw71189100 0.0 1011555
07:00+19ne8794100 36.0 1013367
10:00+20n91095100 16.3 1013553
13:00+19n111295100 24.4 1013773
16:00+17nnw141588100 6.1 1015943
19:00+18n131671100 6.5 10171409
22:00+18nnw9117149 0.2 10191186
22 september, wed
wed2201:00+18nnw1212661 0.8 10201305
04:00+15nnw1012650 0.0 1020915
07:00+14nnw1013680 0.0 1022838
10:00+13nnw910756 0.0 1024941
13:00+15nnw78624 0.0 10241248
16:00+16n895528 0.0 10231696
19:00+17n6751100 0.0 10231792
22:00+17n88493 0.0 10231997